NARSSCUBE-2 (44415 NORAD) Tracking and Keplerian Element Data

This shows tracking and keplerian element data for the satellite.

Feedback or suggestion? Click here.




ElementValue
Catalog44415
NameNARSSCUBE-2
Epoch Orbit3663
Epoch Day93.57952449
Epoch Year2020
RAAN38.3537
Inclination51.6446
Eccentricity0.0012121
Argument of Perigee46.1491
Mean Anonmoly314.0489
Mean Motion15.29860172
Decay Rate1.437E-05
L11 44415U 19022E 20093.57952449 .00001437 00000-0 61338-4 0 9991
L22 44415 51.6446 38.3537 0012121 46.1491 314.0489 15.29860172 36635

Live tracking and technical data element details for NARSSCUBE-2 (NORAD 44415). NARSSCUBE-2 can be tracked NOW for your location showing map with azimuth and elevation plus other details from your city location.

Track the satellite on the map from your city or location and see movement details for azimuth, elevation, latitude, longitude, range, height, and movement on the map or in text.







IsCatalogInMostPopularTable: catalog: 44415, numindb: 14
Update: records affected: 1



GetName: 44415 NARSSCUBE-2

Hit Count: updated at: Thu, 09 Apr 2020 11:08:32 GMT